Tracking 30685 objects as of 18-Jun-2025
HD Live streaming from Space Station
objects crossing your sky now

NOAA 16 DEB

Track NOAA 16 DEB now!
10-day predictions


NORAD ID: 41518
Int'l Code: 2000-055MS
Perigee: 460.8 km
Apogee: 472.1 km
Inclination: 98.8 °
Period: 93.8 minutes
Semi major axis: 6837 km
RCS: Unknown
Launch date: September 21, 2000
Source: United States (US)
Launch site: AIR FORCE WESTERN TEST RANGE (AFWTR)

Note: This is SATELLITE DEBRIS
Your satellite tracking list
Your tracking list is empty




NASA's NSSDC Master Catalog

Two Line Element Set (TLE):
1 41518U 00055MS  25168.39209715  .00458699  00000-0  12503-1 0  9990
2 41518  98.7913 328.0837 0008307 232.0028 128.0462 15.35544176477589
Source of the keplerian elements: AFSPC